DW0156 Weather Reports


time (UTC)temp
C
wind
direction
speed
KPH
gust
KPH
rain 1hr
cm
rain 24hr
cm
rain mn
cm
humidity
%
barometer
mb
20260510072614 16 263 1.6 4.8 0.00 0.00 0.00 68 1028.7
20260510072104 16 263 3.2 4.8 0.00 0.00 0.00 68 1028.7
20260510070940 16 263 1.6 8.0 0.00 0.00 0.00 67 1028.8
20260510070446 16 263 3.2 9.7 0.00 0.00 0.00 67 1028.8
20260510065321 16 263 4.8 9.7 0.00 0.00 0.00 66 1028.6
20260510064802 17 263 3.2 9.7 0.00 0.00 0.00 66 1028.6
20260510064311 17 263 3.2 8.0 0.00 0.00 0.00 65 1028.5
20260510063813 17 263 3.2 6.4 0.00 0.00 0.00 65 1028.5
20260510062032 17 263 3.2 8.0 0.00 0.00 0.00 64 1028.5
20260510061520 17 263 3.2 8.0 0.00 0.00 0.00 64 1028.5
20260510061027 17 263 4.8 9.7 0.00 0.00 0.00 63 1028.5
20260510055901 17 263 3.2 12.9 0.00 0.00 0.00 62 1028.4
20260510055403 17 263 3.2 12.9 0.00 0.00 0.00 61 1028.4
20260510054847 18 263 4.8 12.9 0.00 0.00 0.00 61 1028.4
20260510053728 18 263 3.2 11.3 0.00 0.00 0.00 61 1028.4
20260510053228 18 263 4.8 11.3 0.00 0.00 0.00 61 1028.4
20260510052716 18 263 4.8 11.3 0.00 0.00 0.00 61 1028.4
20260510052213 18 263 4.8 9.7 0.00 0.00 0.00 62 1028.4
20260510051654 17 263 3.2 9.7 0.00 0.00 0.00 61 1028.4
20260510050516 17 263 1.6 8.0 0.00 0.00 0.00 62 1028.4
20260510050006 17 263 3.2 8.0 0.00 0.00 0.00 62 1028.4
20260510045456 17 263 3.2 8.0 0.00 0.00 0.00 61 1028.5
20260510044338 18 263 0.0 3.2 0.00 0.00 0.00 62 1028.5
20260510043835 18 263 0.0 6.4 0.00 0.00 0.00 62 1028.5
20260510043335 18 263 0.0 6.4 0.00 0.00 0.00 61 1028.5
20260510042819 18 263 3.2 9.7 0.00 0.00 0.00 60 1028.5
20260510041633 18 263 1.6 9.7 0.00 0.00 0.00 61 1028.5
20260510041127 18 263 0.0 6.4 0.00 0.00 0.00 61 1028.5
20260510040628 18 263 0.0 3.2 0.00 0.00 0.00 61 1028.5
20260510040136 18 263 0.0 0.0 0.00 0.00 0.00 61 1028.5
20260510035632 17 263 1.6 6.4 0.00 0.00 0.00 61 1028.6
20260510035130 18 263 0.0 4.8 0.00 0.00 0.00 61 1028.6
20260510034631 18 263 0.0 1.6 0.00 0.00 0.00 62 1028.6
20260510034123 17 263 0.0 4.8 0.00 0.00 0.00 61 1028.9
20260510033618 17 263 0.0 4.8 0.00 0.00 0.00 61 1028.9
20260510032456 17 263 3.2 6.4 0.00 0.00 0.00 61 1029.0
20260510032006 17 263 1.6 6.4 0.00 0.00 0.00 61 1029.0
20260510031503 18 263 0.0 4.8 0.00 0.00 0.00 61 1029.0
20260510030956 18 263 0.0 3.2 0.00 0.00 0.00 60 1029.1
20260510030447 18 263 0.0 4.8 0.00 0.00 0.00 61 1029.1
20260510025323 18 263 0.0 4.8 0.00 0.00 0.00 61 1029.4
20260510024833 18 263 0.0 4.8 0.00 0.00 0.00 60 1029.4
20260510024328 18 263 0.0 6.4 0.00 0.00 0.00 61 1029.5
20260510023828 18 263 0.0 6.4 0.00 0.00 0.00 61 1029.5
20260510023317 18 263 0.0 6.4 0.00 0.00 0.00 61 1029.5
20260510022812 18 263 0.0 6.4 0.00 0.00 0.00 61 1029.8
20260510022317 17 263 0.0 3.2 0.00 0.00 0.00 62 1029.8
20260510021807 17 263 0.0 3.2 0.00 0.00 0.00 62 1029.8
20260510021309 17 263 0.0 0.0 0.00 0.00 0.00 62 1030.1
20260510020753 17 263 0.0 4.8 0.00 0.00 0.00 63 1030.1
20260510020253 17 263 0.0 4.8 0.00 0.00 0.00 64 1030.1
20260510015749 17 263 0.0 4.8 0.00 0.00 0.00 63 1030.2
20260510015240 17 263 0.0 3.2 0.00 0.00 0.00 64 1030.2
20260510014740 17 263 0.0 0.0 0.00 0.00 0.00 64 1030.2
20260510014234 17 263 0.0 3.2 0.00 0.00 0.00 65 1030.2
20260510013737 16 263 0.0 3.2 0.00 0.00 0.00 65 1030.2
20260510013230 16 263 0.0 4.8 0.00 0.00 0.00 65 1030.2
20260510012716 16 263 0.0 4.8 0.00 0.00 0.00 65 1030.2
20260510012205 16 263 0.0 4.8 0.00 0.00 0.00 65 1030.2
20260510011710 16 263 0.0 3.2 0.00 0.00 0.00 66 1030.2
20260510011212 16 263 0.0 3.2 0.00 0.00 0.00 67 1030.3
20260510010701 16 263 0.0 3.2 0.00 0.00 0.00 67 1030.3
20260510010156 16 263 0.0 3.2 0.00 0.00 0.00 68 1030.3
20260510005659 16 263 0.0 0.0 0.00 0.00 0.00 69 1030.2
20260510003915 16 263 0.0 4.8 0.00 0.00 0.00 71 1030.3
20260510002753 15 263 1.6 4.8 0.00 0.00 0.00 71 1030.3
20260510002243 15 263 0.0 4.8 0.00 0.00 0.00 71 1030.3
20260510001729 15 263 0.0 4.8 0.00 0.00 0.00 72 1030.3
20260510001222 15 263 0.0 0.0 0.00 0.00 0.00 72 1030.4
20260510000705 15 263 1.6 4.8 0.00 0.00 0.00 72 1030.4
20260510000200 15 263 1.6 9.7 0.00 0.00 0.00 72 1030.4
20260509235656 15 263 3.2 11.3 0.00 0.00 0.00 72 1030.4
20260509235200 15 263 3.2 11.3 0.00 0.00 0.00 72 1030.4
20260509234659 15 263 3.2 11.3 0.00 0.00 0.00 73 1030.4
20260509234206 15 263 3.2 11.3 0.00 0.00 0.00 73 1030.4
20260509233650 15 263 3.2 9.7 0.00 0.00 0.00 75 1030.4
20260509233134 15 263 3.2 12.9 0.00 0.00 0.00 75 1030.4
20260509232614 15 263 3.2 12.9 0.00 0.00 0.00 76 1030.3
20260509232111 14 263 4.8 14.5 0.00 0.00 0.00 77 1030.3
20260509231617 14 263 4.8 14.5 0.00 0.00 0.00 77 1030.3
20260509231125 14 263 3.2 14.5 0.00 0.00 0.00 79 1030.1
20260509230613 14 263 4.8 14.5 0.00 0.00 0.00 80 1030.1
20260509230120 13 263 3.2 8.0 0.00 0.00 0.00 82 1030.1
20260509225626 13 263 3.2 8.0 0.00 0.00 0.00 84 1030.1
20260509225109 13 263 4.8 8.0 0.00 0.00 0.00 85 1030.1
20260509224607 13 263 1.6 8.0 0.00 0.00 0.00 86 1030.1
20260509224115 13 263 1.6 8.0 0.00 0.00 0.00 87 1030.0
20260509223612 13 263 1.6 8.0 0.00 0.00 0.00 88 1030.0
20260509223119 13 263 1.6 8.0 0.00 0.00 0.00 89 1030.0
20260509222623 12 263 1.6 8.0 0.00 0.00 0.00 89 1029.6
20260509222108 12 263 1.6 6.4 0.00 0.00 0.00 90 1029.6
20260509221615 12 263 0.0 4.8 0.00 0.00 0.00 90 1029.6
20260509221108 12 263 0.0 0.0 0.00 0.00 0.00 91 1029.6
20260509220606 12 263 0.0 0.0 0.00 0.00 0.00 91 1029.6
20260509220114 12 263 0.0 0.0 0.00 0.00 0.00 91 1029.6
20260509215605 12 263 0.0 3.2 0.00 0.00 0.00 91 1029.4
20260509215051 12 263 0.0 1.6 0.00 0.00 0.00 91 1029.4
20260509214544 11 263 0.0 1.6 0.00 0.00 0.00 91 1029.4
20260509213429 11 263 0.0 0.0 0.00 0.00 0.00 91 1029.1
20260509212257 11 263 0.0 1.6 0.00 0.00 0.00 91 1029.1
20260509211758 11 263 0.0 0.0 0.00 0.00 0.00 91 1029.1
20260509211254 11 263 0.0 0.0 0.00 0.00 0.00 91 1029.1
20260509210143 11 263 0.0 0.0 0.00 0.00 0.00 91 1029.1
20260509205628 11 263 0.0 0.0 0.00 0.00 0.00 91 1029.0
20260509205114 11 263 0.0 0.0 0.00 0.00 0.00 91 1029.0
20260509204606 11 263 0.0 0.0 0.00 0.00 0.00 91 1029.0
20260509204109 11 263 0.0 0.0 0.00 0.00 0.00 91 1028.8
20260509203614 11 263 0.0 0.0 0.00 0.00 0.00 91 1028.8
20260509203116 11 263 0.0 0.0 0.00 0.00 0.00 91 1028.8
20260509202603 11 263 0.0 0.0 0.00 0.00 0.00 91 1028.6
20260509202047 11 263 0.0 0.0 0.00 0.00 0.00 91 1028.6
20260509201544 11 263 0.0 1.6 0.00 0.00 0.00 91 1028.6
20260509201035 11 263 0.0 0.0 0.00 0.00 0.00 91 1028.5
20260509200523 11 263 0.0 0.0 0.00 0.00 0.00 91 1028.5
20260509200007 11 263 0.0 0.0 0.00 0.00 0.00 91 1028.5
20260509195004 11 263 0.0 0.0 0.00 0.00 0.00 91 1028.5
20260509194508 11 263 0.0 0.0 0.00 0.00 0.00 91 1028.5
20260509194013 11 263 0.0 0.0 0.00 0.00 0.00 91 1028.5
20260509193522 11 263 0.0 0.0 0.00 0.00 0.00 90 1028.5
20260509193006 11 263 0.0 0.0 0.00 0.00 0.00 90 1028.5
20260509192509 11 263 0.0 0.0 0.00 0.00 0.00 90 1028.4
20260509192018 11 263 0.0 0.0 0.00 0.00 0.00 91 1028.4
20260509191510 11 263 0.0 0.0 0.00 0.00 0.00 91 1028.4
20260509190951 11 263 0.0 0.0 0.00 0.00 0.00 91 1028.2
20260509190433 11 263 0.0 0.0 0.00 0.00 0.00 90 1028.2
20260509185923 11 263 0.0 0.0 0.00 0.00 0.00 90 1028.2
20260509185427 12 263 0.0 0.0 0.00 0.00 0.00 90 1028.1
20260509183645 12 263 0.0 0.0 0.00 0.00 0.00 90 1028.1
20260509183150 12 263 0.0 0.0 0.00 0.00 0.00 90 1028.1
20260509182631 12 263 0.0 0.0 0.00 0.00 0.00 90 1028.0
20260509182120 12 263 0.0 0.0 0.00 0.00 0.00 90 1028.0
20260509181628 12 263 0.0 0.0 0.00 0.00 0.00 91 1028.0
20260509181133 12 263 0.0 0.0 0.00 0.00 0.00 91 1028.0
20260509180616 12 263 0.0 3.2 0.00 0.00 0.00 91 1028.0
20260509175547 12 263 0.0 3.2 0.00 0.00 0.00 91 1028.0
20260509175032 12 263 0.0 0.0 0.00 0.00 0.00 91 1028.0
20260509173319 12 263 0.0 0.0 0.00 0.00 0.00 90 1028.0
20260509172158 11 263 0.0 3.2 0.00 0.00 0.00 90 1028.0
20260509171646 11 263 0.0 0.0 0.00 0.00 0.00 90 1028.0
20260509171138 11 263 0.0 0.0 0.00 0.00 0.00 90 1028.1
20260509170644 11 263 0.0 0.0 0.00 0.00 0.00 90 1028.1
20260509170131 11 263 0.0 0.0 0.00 0.00 0.00 90 1028.1
20260509165617 11 263 0.0 0.0 0.00 0.00 0.00 90 1028.3
20260509165119 11 263 0.0 0.0 0.00 0.00 0.00 90 1028.3
20260509164603 11 263 0.0 0.0 0.00 0.00 0.00 89 1028.3
20260509164044 11 263 0.0 0.0 0.00 0.00 0.00 89 1028.4
20260509163549 11 263 0.0 0.0 0.00 0.00 0.00 89 1028.4
20260509163037 11 263 0.0 0.0 0.00 0.00 0.00 89 1028.4
20260509162519 11 263 0.0 0.0 0.00 0.00 0.00 89 1028.5
20260509162018 11 263 0.0 0.0 0.00 0.00 0.00 89 1028.5
20260509161500 11 263 0.0 0.0 0.00 0.00 0.00 89 1028.5
20260509160954 11 263 0.0 0.0 0.00 0.00 0.00 89 1028.5
20260509160440 11 263 0.0 0.0 0.00 0.00 0.00 88 1028.5
20260509155939 11 263 0.0 0.0 0.00 0.00 0.00 88 1028.5
20260509155425 11 263 0.0 0.0 0.00 0.00 0.00 88 1028.5
20260509154919 11 263 0.0 0.0 0.00 0.00 0.00 88 1028.5
20260509153759 11 263 0.0 0.0 0.00 0.00 0.00 88 1028.5
20260509153259 11 263 0.0 0.0 0.00 0.00 0.00 88 1028.5
20260509152800 11 263 0.0 0.0 0.00 0.00 0.00 88 1028.5
20260509152254 11 263 0.0 0.0 0.00 0.00 0.00 88 1028.5
20260509151802 12 263 0.0 0.0 0.00 0.00 0.00 88 1028.5
20260509150629 12 263 0.0 0.0 0.00 0.00 0.00 88 1028.6
20260509150123 12 263 0.0 0.0 0.00 0.00 0.00 88 1028.6
20260509144955 11 263 0.0 0.0 0.00 0.00 0.00 88 1028.7
20260509144446 11 263 0.0 1.6 0.00 0.00 0.00 88 1028.7
20260509143949 11 263 0.0 1.6 0.00 0.00 0.00 87 1028.8
20260509143455 11 263 0.0 0.0 0.00 0.00 0.00 87 1028.8
20260509142954 11 263 0.0 0.0 0.00 0.00 0.00 87 1028.8
20260509142443 11 263 0.0 0.0 0.00 0.00 0.00 87 1028.9
20260509141928 11 263 0.0 0.0 0.00 0.00 0.00 86 1028.9
20260509141410 11 263 0.0 0.0 0.00 0.00 0.00 86 1028.9
20260509140901 11 263 0.0 0.0 0.00 0.00 0.00 86 1028.9
20260509140344 12 263 0.0 0.0 0.00 0.00 0.00 86 1028.9
20260509135834 12 263 0.0 0.0 0.00 0.00 0.00 86 1029.0
20260509135323 12 263 0.0 0.0 0.00 0.00 0.00 86 1029.0
20260509134808 12 263 0.0 0.0 0.00 0.00 0.00 85 1029.0
20260509134310 12 263 0.0 0.0 0.00 0.00 0.00 85 1028.9
20260509133804 12 263 0.0 0.0 0.00 0.00 0.00 85 1028.9
20260509133253 12 263 0.0 0.0 0.00 0.00 0.00 85 1028.9
20260509132132 12 263 0.0 0.0 0.00 0.00 0.00 85 1028.9
20260509131004 12 263 0.0 0.0 0.00 0.00 0.00 85 1029.0
20260509130508 12 263 0.0 0.0 0.00 0.00 0.00 85 1029.0
20260509125951 13 263 0.0 0.0 0.00 0.00 0.00 85 1029.0
20260509125441 13 263 0.0 0.0 0.00 0.00 0.00 85 1029.0
20260509124937 13 263 0.0 0.0 0.00 0.00 0.00 85 1029.0
20260509124444 13 263 0.0 0.0 0.00 0.00 0.00 85 1029.0
20260509123934 13 263 0.0 0.0 0.00 0.00 0.00 86 1029.0
20260509123435 13 263 0.0 0.0 0.00 0.00 0.00 86 1029.0
20260509122334 13 263 1.6 12.9 0.00 0.00 0.00 86 1029.0
20260509121833 13 263 1.6 11.3 0.00 0.00 0.00 86 1029.0
20260509120712 13 263 0.0 1.6 0.00 0.00 0.00 85 1029.0
20260509120201 13 263 0.0 1.6 0.00 0.00 0.00 85 1029.0
20260509115653 13 263 0.0 1.6 0.00 0.00 0.00 85 1028.8
20260509114532 13 263 0.0 0.0 0.00 0.00 0.00 85 1028.8
20260509114040 13 263 0.0 0.0 0.00 0.00 0.00 85 1028.8
20260509113548 13 263 0.0 3.2 0.00 0.00 0.00 84 1028.8
20260509113055 13 263 0.0 0.0 0.00 0.00 0.00 84 1028.8
20260509112555 13 263 0.0 4.8 0.00 0.00 0.00 84 1028.7
20260509111435 13 263 0.0 0.0 0.00 0.00 0.00 84 1028.7
20260509110921 13 263 0.0 0.0 0.00 0.00 0.00 83 1028.8
20260509110425 13 263 0.0 0.0 0.00 0.00 0.00 83 1028.8
20260509105915 13 263 0.0 0.0 0.00 0.00 0.00 83 1028.8
20260509105424 13 263 0.0 0.0 0.00 0.00 0.00 83 1028.8
20260509104258 13 263 0.0 1.6 0.00 0.00 0.00 82 1028.8
20260509103808 13 263 0.0 0.0 0.00 0.00 0.00 82 1028.8
20260509103249 13 263 0.0 0.0 0.00 0.00 0.00 81 1028.8
20260509102747 14 263 0.0 0.0 0.00 0.00 0.00 81 1028.9
20260509102231 14 263 0.0 0.0 0.00 0.00 0.00 81 1028.9
20260509101727 14 263 0.0 0.0 0.00 0.00 0.00 81 1028.9
20260509100623 14 263 0.0 0.0 0.00 0.00 0.00 81 1028.9
20260509100107 15 263 0.0 0.0 0.00 0.00 0.00 81 1028.9
20260509095602 15 263 0.0 0.0 0.00 0.00 0.00 81 1028.8
20260509095048 15 263 0.0 0.0 0.00 0.00 0.00 81 1028.8
20260509094531 15 263 0.0 0.0 0.00 0.00 0.00 81 1028.8
20260509094022 15 263 0.0 3.2 0.00 0.00 0.00 81 1028.6
20260509092843 15 263 0.0 4.8 0.00 0.00 0.00 80 1028.6
20260509092344 15 263 0.0 4.8 0.00 0.00 0.00 80 1028.6
20260509091233 15 263 0.0 6.4 0.00 0.00 0.00 80 1028.6
20260509090724 15 263 0.0 6.4 0.00 0.00 0.00 80 1028.6
20260509090211 15 263 0.0 6.4 0.00 0.00 0.00 80 1028.6
20260509085719 15 263 1.6 8.0 0.00 0.00 0.00 79 1028.5
20260509085220 15 263 0.0 8.0 0.00 0.00 0.00 79 1028.5
20260509084706 15 263 0.0 1.6 0.00 0.00 0.00 79 1028.5
20260509084153 15 263 0.0 0.0 0.00 0.00 0.00 79 1028.5
20260509083645 15 263 0.0 4.8 0.00 0.00 0.00 79 1028.5
20260509083153 16 263 0.0 0.0 0.00 0.00 0.00 79 1028.5
20260509082018 16 263 0.0 6.4 0.00 0.00 0.00 79 1028.4
20260509081517 16 263 0.0 0.0 0.00 0.00 0.00 79 1028.4
20260509075140 16 263 1.6 0.0 0.00 0.00 0.00 79 1028.1
20260509074038 16 263 1.6 9.7 0.00 0.00 0.00 79 1028.1
20260509073536 16 263 1.6 8.0 0.00 0.00 0.00 80 1028.1
20260509073044 16 263 0.0 8.0 0.00 0.00 0.00 81 1028.1